Tracking 20942 objects as of 10-Jul-2020
HD Live streaming from Space Station
objects crossing your sky now

COSMOS 249 DEB

Track COSMOS 249 DEB now!
10-day predictions


NORAD ID: 3912
Int'l Code: 1968-091BQ
Perigee: 783.8 km
Apogee: 1,992.8 km
Inclination: 62.3 °
Period: 113.4 minutes
Semi major axis: 7759 km
RCS: 0.0292 m2 (small)
Launch date: October 20, 1968
Source: Commonwealth of Independent States (former USSR) (CIS)
Launch site: TYURATAM MISSILE AND SPACE COMPLEX (TTMTR)

Note: This is SATELLITE DEBRIS
aabbcc
Your satellite tracking list
Your tracking list is empty




NASA's NSSDC Master Catalog

Two Line Element Set (TLE):
1  3912U 68091BQ  20191.50424538 -.00000384 +00000-0 -44302-3 0  9996
2  3912 062.2568 017.1180 0779069 334.4835 021.9524 12.70196727369500
Source of the keplerian elements: AFSPC